Regional Weather Roundup
Issued by NWS

Home | Current Version | Previous Version | Graphics & Text | Print | Product List | Glossary On
Versions: 1 2 3 4 5 6 7 8 9 10 11 12 13 14 15 16 17 18 19 20 21 22 23 24 25 26 27 28 29 30 31 32 33 34 35 36 37 38 39 40 41 42 43 44 45 46 47 48 49 50
104
ASUS45 KBOI 192310
RWRID

IDAHO REGIONAL WEATHER ROUNDUP
NATIONAL WEATHER SERVICE BOISE ID
400 PM MST SUN NOV 19 2017

NOTE: "FAIR" INDICATES FEW OR NO CLOUDS BELOW 12000 FEET
WITH NO SIGNIFICANT WEATHER AND/OR OBSTRUCTIONS TO VISIBILITY

IDZ012-014-200000-
SOUTHWEST IDAHO


CITY           SKY/WX    TMP DP  RH WIND       PRES   REMARKS
BOISE          PTSUNNY   49  25  39 S9        30.03F
CALDWELL       PTSUNNY   47  27  45 SE7       30.03F
MOUNTAIN HOME  CLOUDY    46  30  54 SE13      30.04F
$$

IDZ016-017-200000-
SOUTHCENTRAL IDAHO


CITY           SKY/WX    TMP DP  RH WIND       PRES   REMARKS
BURLEY         PTCLDY    47  25  42 E5        30.05F
JEROME         MOSUNNY   43  28  55 NE9       30.06F
TWIN FALLS     MOSUNNY   43  30  60 NE7       30.05F
$$

IDZ019>023-200000-
SOUTHEAST IDAHO


CITY           SKY/WX    TMP DP  RH WIND       PRES   REMARKS
IDAHO FALLS    PTCLDY    39  23  52 CALM      30.11F
POCATELLO      CLEAR     45  26  47 S9        30.09F
REXBURG        CLEAR     36  21  54 E5        30.10F WCI  32
$$

IDZ006-010-011-018-031-032-200000-
CENTRAL IDAHO MOUNTAINS


CITY           SKY/WX    TMP DP  RH WIND       PRES   REMARKS
MCCALL         CLOUDY    36  19  50 CALM      29.99F
HAILEY         PTCLDY    37  21  52 SE6       30.08F WCI  33
STANLEY          N/A     22  15  75 VRB3      30.02F
SALMON         CLOUDY    38  21  50 N7        29.98F WCI  33
CHALLIS        MOCLDY    37  17  44 NW3       30.00F
$$

IDZ002-004-006-007-026-200000-
NORTHERN IDAHO


CITY           SKY/WX    TMP DP  RH WIND       PRES   REMARKS
LEWISTON       CLOUDY    48  31  51 E13       29.86F
LOWELL           N/A     39  35  86 CALM      29.96F
COEUR D`ALENE  CLOUDY    44  27  51 S9        29.83F
MULLAN PASS    CLOUDY    27  18  69 VRB7      29.81S WCI  19
$$




USA.gov is the U.S. government's official web portal to all federal, state and local government web resources and services.